"Pseudo-MPEC" for JdLp1J6

Created 2024 May 17 8:22:06 UT using Find_Orb

Click here for an explanation of pseudo-MPECs

 
 Astrometry: 
     JdLp1J6*!C2024 05 09qy/X5giI[%0*KAstrometryXf0Dredacted;@?s3p??e:click4?W84
     JdLp1J6 !C2024 05 093$jhere2gH!/7Jjq[Nv9:,75KdA]AxH5fgHj141Y5@K`eBu9rh.$W84
     JdLp1J6 !C2024 05 09Yw*CyK'A#OViqY3(mE)?gC*crx[``_?]i\oCWLM4xm)Z:(vCHc@,W84
     JdLp1J6 !C2024 05 09l^a,D!%'DBm?u@l/6jforV?KqH!nJ?iVE[oah9explanationmu`W84

Station data:
(W84) Cerro Tololo-DECam  (S30.169594 W70.806420)  Chile.  Observer F. Valdes.
    Measurer S. Deen. 4.0-m reflector + CCD.

Orbital elements:  JdLp1J6
   Perihelion 2024 Mar 21.24922 +/- 25.3 TT =  5:58:52 (JD 2460390.74922)
Epoch 2024 May  9.0 TT = JDT 2460439.5   Earth MOID: 0.0118   Ve: 0.0225
M  11.12905975 +/- 50               (J2000 ecliptic)             AutoNEOCP
n   0.22828475 +/- 0.474            Peri.   78.10397 +/- 59
a   2.65145817 +/- 3.67             Node    39.88591 +/- 11
e   0.8234710 +/- 0.21              Incl.  136.23279 +/- 45
P   4.32                   H 24.08  G  0.15   U 12.2  SR
q 0.46805904 +/- 0.344    Q 4.83485730 +/- 20.4
From 4 observations 2024 May 9 (55.5 min); mean residual 0".23
Residuals in arcseconds: 
240509 W84  .13+  .22-    240509 W84  .30+  .07-    
240509 W84  .35-  .36+    240509 W84  .08-  .07-    

Ephemerides (geocentric):
Date (UTC) HH   RA             Dec           delta  r     elong  mag " sig PA
---- --------  ------------   ------------  ------ ------ -----  --- --------
2024 05 17 08  10 13 42.356   -04 37 31.42  .48524 1.1964 100.2 24.9 928'  62
2024 05 17 09  10 13 44.253   -04 38 23.44  .48665 1.1970 100.1 24.9 939'  62
2024 05 17 10  10 13 46.144   -04 39 15.19  .48805 1.1976 100.1 24.9 949'  62
2024 05 17 11  10 13 48.030   -04 40 06.67  .48946 1.1982 100.1 25.0 959'  63
2024 05 17 12  10 13 49.910   -04 40 57.88  .49086 1.1988 100.0 25.0 969'  63
2024 05 17 13  10 13 51.785   -04 41 48.83  .49226 1.1994 100.0 25.0 979'  63
2024 05 17 14  10 13 53.654   -04 42 39.51  .49367 1.2000 100.0 25.0 989'  64
2024 05 17 15  10 13 55.518   -04 43 29.94  .49507 1.2006 100.0 25.0 999'  64
2024 05 17 16  10 13 57.377   -04 44 20.10  .49648 1.2012  99.9 25.0  17d  64
2024 05 17 17  10 13 59.230   -04 45 10.01  .49788 1.2018  99.9 25.0  17d  65
2024 05 17 18  10 14 01.079   -04 45 59.66  .49928 1.2024  99.9 25.0  17d  65
2024 05 17 19  10 14 02.922   -04 46 49.07  .50069 1.2030  99.9 25.0  17d  65
2024 05 17 20  10 14 04.760   -04 47 38.22  .50209 1.2036  99.8 25.0  17d  66
2024 05 17 21  10 14 06.593   -04 48 27.13  .50349 1.2042  99.8 25.0  18d  66
2024 05 17 22  10 14 08.422   -04 49 15.79  .50490 1.2048  99.8 25.0  18d  66
2024 05 17 23  10 14 10.245   -04 50 04.20  .50630 1.2053  99.8 25.0  18d  66
2024 05 18 00  10 14 12.064   -04 50 52.38  .50770 1.2059  99.7 25.0  18d  67
2024 05 18 01  10 14 13.878   -04 51 40.32  .50911 1.2065  99.7 25.0  18d  67
2024 05 18 02  10 14 15.687   -04 52 28.02  .51051 1.2071  99.7 25.0  18d  67
2024 05 18 03  10 14 17.491   -04 53 15.49  .51191 1.2077  99.6 25.1  18d  68
2024 05 18 04  10 14 19.291   -04 54 02.72  .51332 1.2083  99.6 25.1  19d  68
2024 05 18 05  10 14 21.086   -04 54 49.72  .51472 1.2089  99.6 25.1  19d  68
2024 05 18 06  10 14 22.877   -04 55 36.50  .51612 1.2095  99.6 25.1  19d  68
2024 05 18 07  10 14 24.663   -04 56 23.04  .51752 1.2101  99.5 25.1  19d  69
2024 05 18 08  10 14 26.445   -04 57 09.36  .51893 1.2107  99.5 25.1  19d  69
2024 05 18 09  10 14 28.223   -04 57 55.46  .52033 1.2113  99.5 25.1  19d  69
2024 05 18 10  10 14 29.996   -04 58 41.34  .52173 1.2119  99.4 25.1  19d  69
2024 05 18 11  10 14 31.764   -04 59 27.00  .52313 1.2125  99.4 25.1  19d  70
2024 05 18 12  10 14 33.529   -05 00 12.44  .52454 1.2131  99.4 25.1  19d  70
2024 05 18 13  10 14 35.289   -05 00 57.66  .52594 1.2137  99.4 25.1  20d  70
2024 05 18 14  10 14 37.045   -05 01 42.67  .52734 1.2143  99.3 25.1  20d  70
2024 05 18 15  10 14 38.797   -05 02 27.47  .52874 1.2149  99.3 25.1  20d  70
2024 05 18 16  10 14 40.545   -05 03 12.06  .53014 1.2155  99.3 25.1  20d  71
2024 05 18 17  10 14 42.289   -05 03 56.44  .53155 1.2161  99.3 25.1  20d  71
2024 05 18 18  10 14 44.029   -05 04 40.61  .53295 1.2167  99.2 25.1  20d  71
2024 05 18 19  10 14 45.765   -05 05 24.58  .53435 1.2173  99.2 25.1  20d  71
2024 05 18 20  10 14 47.497   -05 06 08.34  .53575 1.2179  99.2 25.2  20d  71
2024 05 18 21  10 14 49.225   -05 06 51.91  .53715 1.2185  99.1 25.2  20d  72
2024 05 18 22  10 14 50.950   -05 07 35.27  .53855 1.2191  99.1 25.2  20d  72
2024 05 18 23  10 14 52.670   -05 08 18.43  .53995 1.2197  99.1 25.2  20d  72
2024 05 19 00  10 14 54.387   -05 09 01.40  .54136 1.2202  99.1 25.2  21d  72
2024 05 19 01  10 14 56.100   -05 09 44.17  .54276 1.2208  99.0 25.2  21d  72
2024 05 19 02  10 14 57.810   -05 10 26.74  .54416 1.2214  99.0 25.2  21d  73
2024 05 19 03  10 14 59.515   -05 11 09.13  .54556 1.2220  99.0 25.2  21d  73
2024 05 19 04  10 15 01.218   -05 11 51.32  .54696 1.2226  98.9 25.2  21d  73
2024 05 19 05  10 15 02.916   -05 12 33.33  .54836 1.2232  98.9 25.2  21d  73
2024 05 19 06  10 15 04.611   -05 13 15.15  .54976 1.2238  98.9 25.2  21d  73
2024 05 19 07  10 15 06.303   -05 13 56.78  .55116 1.2244  98.9 25.2  21d  73